Home   Weather   Gurdaspur   Past weeks

Flag for India Past Weather in Gurdaspur, Punjab, India — Yesterday and Last 2 Weeks

Now
82 °F

Fog.


Feels Like: 96 °F
Forecast: 74 / 95 °F
Wind: No wind

Location: Amritsar Airport

Current Time: Sep 27, 2016 at 10:53:55 PM

Latest Report: Sep 27, 2016 at 10:00 PM


Visibility: 1 mi

Pressure: 29.74 "Hg

Humidity: 100%

Dew Point: 82 °F

Location of GurdaspurLocation

Past Weather in Gurdaspur — Graph

°F

Gurdaspur Temperature Yesterday

Maximum temperature yesterday: 88 °F (at 5:30 PM)
Minimum temperature yesterday: 79 °F (at 12:30 AM)
Average temperature yesterday: 81 °F

High & Low Weather Summary for the Past Weeks

 TemperatureHumidityPressure
High95 °F (Sep 17, 1:30 PM)100% (Sep 12, 10:00 PM)29.92 "Hg (Sep 12, 10:00 PM)
Low70 °F (Sep 27, 8:00 AM)56% (Sep 17, 12:00 PM)29.59 "Hg (Sep 20, 5:00 PM)
Average84 °F87%29.72 "Hg
* Reported Sep 12 9:30 PM — Sep 27 9:30 PM, Gurdaspur, Weather by CustomWeather, © 2016

Note: Actual official high and low records may vary slightly from our data, if they occured in-between our weather recording intervals... More about our weather records

Advertising

Gurdaspur Weather History for the Previous 24 Hours

Scroll right to see more
 ConditionsComfort  
Time TempWeatherWind HumidityBarometerVisibility
9:30 PM
Tue, Sep 27
82 °FFog.No wind100%29.74 "Hg1 mi
9:00 PM82 °FFog.No wind100%29.74 "Hg1 mi
8:30 PM82 °FFog.No wind100%29.74 "Hg1 mi
8:00 PM84 °FFog.No wind100%29.74 "Hg1 mi
7:30 PM84 °FFog.No wind100%29.71 "Hg1 mi
7:00 PM84 °FFog.No wind100%29.71 "Hg1 mi
6:30 PM86 °FFog.No wind89%29.71 "Hg1 mi
6:00 PM88 °FFog.No wind79%29.71 "Hg1 mi
5:30 PM88 °FScattered clouds.2 mph79%29.71 "Hg1 mi
5:00 PM90 °FScattered clouds.2 mph75%29.71 "Hg1 mi
4:30 PM90 °FScattered clouds.No wind75%29.71 "Hg1 mi
4:00 PM90 °FScattered clouds.2 mph75%29.71 "Hg1 mi
3:30 PM90 °FBroken clouds.3 mph75%29.74 "Hg1 mi
3:00 PM90 °FFog.2 mph75%29.74 "Hg1 mi
2:30 PM90 °FFog.2 mph75%29.74 "Hg1 mi
2:00 PM90 °FFog.2 mph75%29.77 "Hg1 mi
1:30 PM90 °FFog.3 mph79%29.77 "Hg1 mi
1:00 PM88 °FFog.7 mph84%29.80 "Hg1 mi
12:30 PM90 °FBroken clouds.2 mph75%29.80 "Hg2 mi
12:00 PM88 °FBroken clouds.2 mph75%29.80 "Hg2 mi
11:30 AM90 °FScattered clouds.2 mph75%29.83 "Hg2 mi
11:00 AM88 °FFog.2 mph79%29.83 "Hg1 mi
10:30 AM88 °FFog.2 mph84%29.83 "Hg1 mi
10:00 AM86 °FFog.2 mph94%29.83 "Hg1 mi
9:30 AM84 °FFog.2 mph100%29.83 "Hg1 mi
9:00 AM82 °FFog.3 mph100%29.80 "Hg1 mi
8:30 AM81 °FFog.2 mph100%29.80 "Hg1 mi
8:00 AM70 °FFog.No wind100%29.80 "Hg1 mi
7:30 AM79 °FFog.No wind100%29.80 "Hg1 mi
7:00 AM77 °FFog.No wind100%29.77 "Hg1 mi
6:30 AM77 °FFog.No wind100%29.77 "Hg1 mi
6:00 AM77 °FFog.No wind100%29.77 "Hg1 mi
5:30 AM77 °FFog.No wind100%29.77 "Hg1 mi
5:00 AM79 °FFog.No wind100%29.74 "Hg1 mi
4:30 AM79 °FFog.No wind100%29.74 "Hg1 mi
4:00 AM79 °FFog.No wind100%29.74 "Hg1 mi
3:30 AM77 °FFog.No wind100%29.74 "Hg1 mi
3:00 AM77 °FFog.No wind100%29.74 "Hg1 mi
2:30 AM79 °FFog.No wind100%29.74 "Hg1 mi
1:30 AM79 °FFog.No wind100%29.74 "Hg1 mi
1:00 AM81 °FFog.No wind100%29.74 "Hg1 mi
12:30 AM79 °FFog.No wind100%29.74 "Hg1 mi
11:30 PM
Mon, Sep 26
81 °FFog.No wind100%29.74 "Hg1 mi
11:00 PM81 °FFog.No wind100%29.74 "Hg1 mi
10:30 PM81 °FFog.No wind100%29.74 "Hg1 mi
10:00 PM81 °FFog.No wind100%29.74 "Hg1 mi
Weather by CustomWeather, © 2016

See weather overviewHow to use our weather pages